Montpelier, VT

4:08 PM EST on February 24, 2017 (GMT -0500)
Knapp State

Weather History for KMPV - February, 2013

Change the Weather History Date:

Friday, February 8, 2013

  Actual Average Record
Temperature  
Mean Temperature 16 °F 18 °F  
Max Temperature 20 °F 29 °F 49 °F (2009)
Min Temperature 12 °F 8 °F -25 °F (1967)
Degree Days  
Heating Degree Days 49 47  
Month to date heating degree days 419 378  
Since 1 July heating degree days 4764 5023  
Cooling Degree Days 0 0  
Month to date cooling degree days 0  
Year to date cooling degree days 0  
Moisture  
Dew Point 14 °F    
Average Humidity 77    
Maximum Humidity 100    
Minimum Humidity 53    
Precipitation  
Precipitation 0.43 in 0.08 in 0.53 in (1971)
Month to date precipitation 0.45 0.62  
Year to date precipitation 1.40 3.07  
Sea Level Pressure  
Sea Level Pressure 30.15 in    
Wind  
Wind Speed 3 mph (East)    
Max Wind Speed 12 mph    
Max Gust Speed 17 mph    
Visibility 1 miles    
Events Fog , Snow    
T = Trace of Precipitation, MM = Missing Value Source: NWS Daily Summary

Daily Weather History Graph

Daily Weather History Graph

Search for Another Location

Airport or City:

Trip Planner

Search our weather history database for the weather conditions in past years. The results will help you decide how hot, cold, wet, or windy it might be!

Date:

Astronomy

Feb. 08, 2013 Rise Set
Actual Time 6:59 AM EST 5:10 PM EST
Civil Twilight 6:29 AM EST 5:40 PM EST
Nautical Twilight 5:54 AM EST 6:14 PM EST
Astronomical Twilight 5:21 AM EST 6:48 PM EST
Moon 5:27 AM EST (2/8) 3:39 PM EST (2/8)
Length of Visible Light 11h 11m
Length of Day
10h 11m
Waning Crescent, 3% of the Moon is Illuminated
Feb 8
Waning Crescent
Feb 10
New
Feb 17
First Quarter
Feb 25
Full
Mar 4
Last Quarter

Hourly Weather History & Observations

Time (EST) Temp. Windchill Dew Point Humidity Pressure Visibility Wind Dir Wind Speed Gust Speed Precip Events Conditions
12:51 AM 12.0 °F - -0.9 °F 56% 30.48 in 10.0 mi Calm Calm - N/A   Overcast
1:51 AM 12.9 °F - -2.0 °F 51% 30.48 in 10.0 mi Calm Calm - N/A   Overcast
2:51 AM 12.9 °F - -0.0 °F 56% 30.44 in 10.0 mi Calm Calm - N/A   Overcast
3:48 AM 15.1 °F 4.2 °F 5.0 °F 64% 30.42 in 2.5 mi SSE 8.1 mph - 0.00 in Snow Light Snow
4:08 AM 14.0 °F 3.9 °F 6.8 °F 73% 30.33 in 1.5 mi South 6.9 mph - 0.00 in Snow Light Snow
4:44 AM 14.0 °F 3.9 °F 8.6 °F 79% 30.32 in 1.2 mi South 6.9 mph - 0.00 in Snow Light Snow
4:51 AM 14.0 °F 5.1 °F 9.0 °F 80% 30.40 in 1.2 mi South 5.8 mph - 0.00 in Snow Light Snow
4:58 AM 12.2 °F 2.9 °F 10.4 °F 92% 30.32 in 1.0 mi South 5.8 mph - 0.01 in Snow Light Snow
5:36 AM 14.0 °F 5.1 °F 10.4 °F 86% 30.31 in 1.2 mi South 5.8 mph - 0.02 in Snow Light Snow
5:43 AM 14.0 °F 6.5 °F 10.4 °F 86% 30.31 in 1.0 mi South 4.6 mph - 0.02 in Snow Light Snow
5:51 AM 14.0 °F 6.5 °F 10.0 °F 84% 30.39 in 0.8 mi South 4.6 mph - 0.02 in Snow Light Snow
5:58 AM 14.0 °F 8.2 °F 10.4 °F 86% 30.31 in 0.8 mi South 3.5 mph - 0.01 in Snow Light Snow
6:13 AM 14.0 °F 8.2 °F 10.4 °F 86% 30.30 in 1.0 mi South 3.5 mph - 0.02 in Snow Light Snow
6:22 AM 14.0 °F - 10.4 °F 86% 30.30 in 1.2 mi Calm Calm - N/A Snow Light Snow
6:37 AM 14.0 °F 8.2 °F 10.4 °F 86% 30.30 in 1.0 mi SSE 3.5 mph - 0.03 in Snow Light Snow
6:51 AM 14.0 °F - 10.9 °F 88% 30.37 in 1.0 mi Calm Calm - 0.03 in Snow Light Snow
7:03 AM 14.0 °F - 10.4 °F 86% 30.29 in 0.8 mi Calm Calm - 0.01 in Snow Light Snow
7:51 AM 12.9 °F - 12.0 °F 96% 30.38 in 0.5 mi Calm Calm - 0.04 in Fog , Snow Snow
8:51 AM 15.1 °F - 12.9 °F 91% 30.36 in 0.5 mi Calm Calm - 0.03 in Fog , Snow Snow
9:51 AM 17.1 °F 8.7 °F 12.9 °F 84% 30.33 in 0.5 mi SSE 5.8 mph - 0.03 in Fog , Snow Snow
10:51 AM 18.0 °F - 15.1 °F 88% 30.32 in 0.5 mi Calm Calm - 0.02 in Fog , Snow Snow
11:18 AM 17.6 °F 9.3 °F 14.0 °F 86% 30.23 in 0.8 mi SSW 5.8 mph - 0.01 in Snow Light Snow
11:51 AM 19.0 °F 12.3 °F 15.1 °F 85% 30.29 in 0.5 mi South 4.6 mph - 0.03 in Fog , Snow Light Snow
11:58 AM 19.4 °F 14.3 °F 15.8 °F 86% 30.20 in 0.8 mi South 3.5 mph - 0.00 in Snow Light Snow
12:36 PM 19.4 °F 14.3 °F 15.8 °F 86% 30.18 in 1.0 mi South 3.5 mph - 0.01 in Snow Light Snow
12:44 PM 19.4 °F 12.8 °F 15.8 °F 86% 30.17 in 0.8 mi South 4.6 mph - 0.01 in Snow Light Snow
12:51 PM 19.9 °F 14.9 °F 16.0 °F 85% 30.24 in 0.5 mi South 3.5 mph - 0.01 in Fog , Snow Snow
1:13 PM 19.4 °F 12.8 °F 15.8 °F 86% 30.15 in 1.0 mi SSE 4.6 mph - 0.01 in Snow Light Snow
1:20 PM 19.4 °F 12.8 °F 17.6 °F 93% 30.15 in 0.8 mi SSE 4.6 mph - 0.01 in Snow Light Snow
1:36 PM 19.4 °F - 17.6 °F 93% 30.14 in 0.5 mi Calm Calm - 0.02 in Fog , Snow Snow
1:51 PM 19.9 °F - 17.1 °F 89% 30.20 in 0.8 mi Calm Calm - 0.02 in Snow Light Snow
2:00 PM 19.4 °F 14.3 °F 17.6 °F 93% 30.12 in 1.0 mi NNE 3.5 mph - 0.00 in Snow Light Snow
2:07 PM 19.4 °F - 17.6 °F 93% 30.11 in 0.5 mi Calm Calm - 0.00 in Fog , Snow Light Snow
2:29 PM 19.4 °F - 17.6 °F 93% 30.09 in 1.0 mi Calm Calm - 0.01 in Snow Light Snow
2:51 PM 19.9 °F - 18.0 °F 92% 30.16 in 0.8 mi Calm Calm - 0.02 in Snow Light Snow
3:27 PM 19.4 °F - 17.6 °F 93% 30.07 in 1.0 mi Calm Calm - 0.00 in Snow Light Snow
3:42 PM 19.4 °F 14.3 °F 17.6 °F 93% 30.06 in 1.2 mi North 3.5 mph - 0.01 in Snow Light Snow
3:51 PM 19.9 °F - 18.0 °F 92% 30.13 in 1.5 mi Calm Calm - 0.01 in Snow Light Snow
4:14 PM 19.4 °F - 17.6 °F 93% 30.05 in 1.0 mi Calm Calm - 0.00 in Snow Light Snow
4:25 PM 19.4 °F - 17.6 °F 93% 30.05 in 0.5 mi Calm Calm - 0.00 in Fog , Snow Light Snow
4:51 PM 19.9 °F - 18.0 °F 92% 30.10 in 0.8 mi Calm Calm - 0.02 in Snow Light Snow
5:12 PM 19.4 °F - 17.6 °F 93% 30.02 in 1.2 mi Calm Calm - 0.00 in Snow Light Snow
5:25 PM 19.4 °F - 17.6 °F 93% 30.02 in 1.0 mi Calm Calm - 0.01 in Snow Light Snow
5:51 PM 19.9 °F - 18.0 °F 92% 30.09 in 0.8 mi Calm Calm - 0.03 in Snow Light Snow
6:51 PM 19.9 °F 14.9 °F 19.0 °F 96% 30.09 in 1.0 mi East 3.5 mph - 0.04 in Snow Light Snow
7:09 PM 19.4 °F - 19.4 °F 100% 30.00 in 0.8 mi Calm Calm - 0.01 in Snow Light Snow
7:42 PM 19.4 °F 12.8 °F 17.6 °F 93% 30.00 in 1.0 mi NNE 4.6 mph - 0.03 in Snow Light Snow
7:51 PM 19.0 °F 9.0 °F 18.0 °F 96% 30.06 in 1.0 mi NE 8.1 mph - 0.03 in Snow Light Snow
8:10 PM 19.4 °F 8.6 °F 17.6 °F 93% 29.98 in 0.8 mi NE 9.2 mph - 0.01 in Snow Light Snow
8:21 PM 17.6 °F 5.7 °F 17.6 °F 100% 29.98 in 1.0 mi NE 10.4 mph - 0.01 in Snow Light Snow
8:23 PM 17.6 °F 6.4 °F 15.8 °F 93% 29.98 in 1.2 mi NE 9.2 mph - 0.01 in Snow Light Snow
8:47 PM 17.6 °F 6.4 °F 15.8 °F 93% 29.96 in 1.5 mi NE 9.2 mph - 0.01 in Snow Light Snow
8:51 PM 17.1 °F 7.6 °F 15.1 °F 92% 30.03 in 1.5 mi NE 6.9 mph - 0.01 in Snow Light Snow
9:04 PM 17.6 °F 6.4 °F 15.8 °F 93% 29.96 in 1.2 mi NE 9.2 mph - 0.00 in Snow Light Snow
9:28 PM 17.6 °F 7.3 °F 15.8 °F 93% 29.95 in 1.0 mi NNE 8.1 mph - N/A Snow Light Snow
9:40 PM 17.6 °F 7.3 °F 15.8 °F 93% 29.95 in 0.8 mi NNE 8.1 mph - 0.01 in Snow Light Snow
9:51 PM 17.1 °F 7.6 °F 15.1 °F 92% 30.01 in 1.0 mi NNE 6.9 mph - 0.01 in Snow Light Snow
10:04 PM 15.8 °F 6.1 °F 14.0 °F 93% 29.94 in 1.2 mi NNE 6.9 mph - 0.01 in Snow Light Snow
10:13 PM 15.8 °F 5.1 °F 14.0 °F 93% 29.94 in 1.2 mi NNE 8.1 mph - 0.01 in Snow Light Snow
10:20 PM 15.8 °F 5.1 °F 14.0 °F 93% 29.94 in 1.0 mi NNE 8.1 mph - 0.01 in Snow Light Snow
10:31 PM 15.8 °F 5.1 °F 14.0 °F 93% 29.93 in 1.2 mi North 8.1 mph - 0.01 in Snow Light Snow
10:43 PM 15.8 °F 4.2 °F 14.0 °F 93% 29.93 in 1.5 mi NNE 9.2 mph - 0.02 in Snow Light Snow
10:51 PM 16.0 °F 6.3 °F 14.0 °F 92% 29.99 in 1.5 mi NNE 6.9 mph - 0.02 in Snow Light Snow
11:13 PM 15.8 °F 3.4 °F 12.2 °F 86% 29.90 in 1.5 mi NNE 10.4 mph - 0.00 in Snow Light Snow
11:39 PM 15.8 °F 2.7 °F 12.2 °F 86% 29.90 in 1.2 mi North 11.5 mph - 0.00 in Snow Light Snow
11:51 PM 15.1 °F 4.2 °F 12.9 °F 91% 29.97 in 1.2 mi North 8.1 mph - 0.00 in Snow Light Snow